, AK

(GMT )
Cape Romanzoff

Weather History for PACZ - January, 2013

Change the Weather History Date:

Monday, January 21, 2013

  Actual Average Record
Temperature  
Mean Temperature 26 °F -  
Max Temperature 34 °F 19 °F 46 °F (2003)
Min Temperature 19 °F 5 °F -15 °F (2006)
Degree Days  
Heating Degree Days 38    
Moisture  
Dew Point 24 °F    
Average Humidity 83    
Maximum Humidity 93    
Minimum Humidity 73    
Precipitation  
Precipitation 0.00 in - - ()
Sea Level Pressure  
Sea Level Pressure 29.65 in    
Wind  
Wind Speed 20 mph (SE)    
Max Wind Speed 32 mph    
Max Gust Speed -    
Visibility 10 miles    
Events Rain , Snow    
Averages and records for this station are not official NWS values.
T = Trace of Precipitation, MM = Missing Value Source: NWS Daily Summary

Daily Weather History Graph

Daily Weather History Graph

Search for Another Location

Airport or City:

Trip Planner

Search our weather history database for the weather conditions in past years. The results will help you decide how hot, cold, wet, or windy it might be!

Date:

Astronomy

Jan. 21, 2013 Rise Set
Actual Time 10:53 AM AKST 5:38 PM AKST
Civil Twilight 9:58 AM AKST 6:33 PM AKST
Nautical Twilight 9:02 AM AKST 7:29 PM AKST
Astronomical Twilight 8:09 AM AKST 8:22 PM AKST
Moon 1:16 PM AKST (1/21) 6:41 AM AKST (1/21)
Length of Visible Light 8h 35m
Length of Day
6h 45m
Waxing Gibbous, 76% of the Moon is Illuminated
Jan 21
Waxing Gibbous
Jan 26
Full
Feb 3
Last Quarter
Feb 9
New
Feb 17
First Quarter

Hourly Weather History & Observations

Time (AKST) Temp. Windchill Dew Point Humidity Pressure Visibility Wind Dir Wind Speed Gust Speed Precip Events Conditions
12:55 AM 30.6 °F 16.2 °F 24.6 °F 79% 29.67 in 10.0 mi ESE 27.6 mph - N/A   Overcast
1:55 AM 29.8 °F 14.7 °F 23.7 °F 78% 29.68 in 10.0 mi ESE 29.9 mph - N/A   Mostly Cloudy
2:55 AM 31.8 °F 18.4 °F 24.3 °F 74% 29.67 in 10.0 mi ESE 25.3 mph - N/A   Overcast
3:55 AM 31.3 °F 16.9 °F 23.5 °F 73% 29.66 in 10.0 mi ESE 28.8 mph - N/A   Mostly Cloudy
4:55 AM 31.1 °F 16.9 °F 23.9 °F 75% 29.65 in 10.0 mi ESE 27.6 mph - N/A   Mostly Cloudy
5:55 AM 29.1 °F 13.2 °F 23.0 °F 78% 29.65 in 10.0 mi ESE 32.2 mph - N/A   Mostly Cloudy
6:55 AM 30.2 °F 15.4 °F 23.0 °F 75% 29.62 in 10.0 mi ESE 28.8 mph - N/A   Overcast
7:55 AM 28.4 °F 12.3 °F 23.2 °F 81% 29.65 in 10.0 mi ESE 32.2 mph - N/A Snow Light Snow
8:36 AM 28.4 °F 12.7 °F 24.8 °F 86% 29.65 in 10.0 mi ESE 29.9 mph - N/A   Overcast
8:51 AM 30.2 °F 15.9 °F 24.8 °F 80% 29.65 in 6.0 mi ESE 26.5 mph - N/A Snow Light Snow Showers
8:55 AM 29.8 °F 15.5 °F 24.6 °F 81% 29.65 in 10.0 mi SE 26.5 mph - N/A Snow Light Snow Showers
9:06 AM 30.2 °F 16.2 °F 26.6 °F 86% 29.65 in 10.0 mi SE 25.3 mph - N/A   Mostly Cloudy
9:55 AM 32.2 °F 19.7 °F 28.8 °F 87% 29.65 in 10.0 mi ESE 21.9 mph - N/A   Mostly Cloudy
10:06 AM 33.8 °F 22.8 °F 30.2 °F 87% 29.65 in 10.0 mi ESE 18.4 mph - N/A   Light Drizzle
10:55 AM 32.0 °F - 28.6 °F 87% 29.67 in 10.0 mi Variable 2.3 mph - N/A Rain Light Rain Showers
11:21 AM 30.2 °F 21.9 °F 28.4 °F 93% 29.67 in 10.0 mi SSW 9.2 mph - N/A   Overcast
11:36 AM 30.2 °F 25.4 °F 26.6 °F 86% 29.68 in 10.0 mi Variable 4.6 mph - N/A Snow Light Snow Showers
11:51 AM 30.2 °F 21.9 °F 26.6 °F 86% 29.68 in 10.0 mi West 9.2 mph - N/A   Mostly Cloudy
11:55 AM 29.7 °F 24.7 °F 26.2 °F 87% 29.68 in 10.0 mi Variable 4.6 mph - N/A   Mostly Cloudy
12:55 PM 29.7 °F - 25.9 °F 86% 29.69 in 10.0 mi East 2.3 mph - N/A   Mostly Cloudy
1:55 PM 28.9 °F 23.9 °F 24.1 °F 82% 29.68 in 10.0 mi SSW 4.6 mph - N/A   Mostly Cloudy
2:55 PM 30.2 °F 25.4 °F 23.5 °F 76% 29.66 in 10.0 mi East 4.6 mph - N/A   Mostly Cloudy
3:55 PM 28.6 °F 18.7 °F 21.4 °F 74% 29.66 in 10.0 mi NE 11.5 mph - N/A   Scattered Clouds
4:06 PM 30.2 °F 22.6 °F 23.0 °F 75% 29.65 in 10.0 mi NNE 8.1 mph - N/A Snow Light Snow
4:36 PM 28.4 °F 19.1 °F 23.0 °F 80% 29.65 in 10.0 mi SSE 10.4 mph - N/A   Scattered Clouds
4:55 PM 27.0 °F 19.5 °F 22.5 °F 83% 29.65 in 10.0 mi South 6.9 mph - N/A   Clear
5:55 PM 25.0 °F - 20.7 °F 84% 29.65 in 10.0 mi Calm Calm - N/A   Clear
6:55 PM 25.0 °F 19.3 °F 21.4 °F 86% 29.64 in 10.0 mi ESE 4.6 mph - N/A   Partly Cloudy
7:55 PM 22.8 °F - 20.7 °F 91% 29.65 in 10.0 mi Variable 1.2 mph - N/A   Mostly Cloudy
8:55 PM 22.5 °F 17.8 °F 19.8 °F 89% 29.64 in 10.0 mi South 3.5 mph - N/A   Mostly Cloudy
9:55 PM 21.2 °F 12.6 °F 19.4 °F 93% 29.59 in 10.0 mi SSW 6.9 mph - N/A   Mostly Cloudy
10:55 PM 20.5 °F - 18.5 °F 92% 29.61 in 10.0 mi SSW 2.3 mph - N/A   Mostly Cloudy
11:55 PM 19.8 °F 10.8 °F 17.2 °F 90% 29.60 in 10.0 mi SSE 6.9 mph - N/A   Scattered Clouds